Flag for Norway Weather past 2 weeks in Porsgrunn, Norway

Now
56 °F

Cool.


Feels Like: 56 °F
Forecast: 46 / 63 °F
Wind: 2 mph from Northwest

Location: Jomfruland Fyr

Current Time: Aug 21, 2014 at 5:37:26 AM

Latest Report: Aug 21, 2014 at 4:00 AM


Visibility: N/A

Pressure: 29.57 "Hg

Humidity: 76%

Dew point: 48 °F

Location of PorsgrunnLocation

Historic Weather in Porsgrunn — Graph

°F

Porsgrunn temperature yesterday

Maximum temperature yesterday: 67 °F (at 4:00 PM)
Minimum temperature yesterday: 54 °F (at 7:00 AM)
Average temperature yesterday: 60 °F

Past Weeks' High & Low Weather Summary

 TemperatureHumidityPressure
High74 °F (Aug 7, 3:00 PM)93% (Aug 11, 6:00 AM)29.93 "Hg (Aug 11, 6:00 AM)
Low50 °F (Aug 18, 7:00 AM)49% (Aug 20, 12:00 PM)29.18 "Hg (Aug 18, 8:00 AM)
Average62 °F76%29.59 "Hg
* Reported Aug 6 4:00 AM — Aug 21 4:00 AM, Porsgrunn, Weather by CustomWeather, © 2014

Note: Actual official high and low records may vary slightly from our data, if they occured in-between our weather recording intervals... More about our weather records

Advertising

Porsgrunn weather history for previous 24 hours

 ConditionsComfort  
Time TempWeatherWind HumidityBarometerVisibility
4:00 AM
Aug 21
56 °FCool.2 mph76%29.57 "HgN/A
3:00 AM56 °FCool.3 mph79%29.56 "HgN/A
2:00 AM57 °FCool.3 mph77%29.56 "HgN/A
1:00 AM57 °FCool.3 mph79%29.55 "HgN/A
12:00 AM58 °FCool.3 mph80%29.54 "HgN/A
11:00 PM
Aug 20
58 °FCool.1 mph75%29.53 "HgN/A
10:00 PM58 °FCool.2 mph75%29.53 "HgN/A
9:00 PM59 °FCool.2 mph75%29.50 "HgN/A
8:00 PM60 °FCool.3 mph79%29.47 "HgN/A
7:00 PM59 °FCool.2 mph81%29.47 "HgN/A
6:00 PM62 °FCool.5 mph68%29.47 "HgN/A
5:00 PM65 °FMild.7 mph67%29.47 "HgN/A
4:00 PM67 °FMild.7 mph58%29.44 "HgN/A
3:00 PM65 °FMild.9 mph59%29.44 "HgN/A
2:00 PM64 °FMild.8 mph57%29.44 "HgN/A
1:00 PM65 °FMild.6 mph54%29.44 "HgN/A
12:00 PM66 °FMild.5 mph49%29.44 "HgN/A
11:00 AM65 °FMild.2 mph52%29.44 "HgN/A
10:00 AM64 °FMild.2 mph56%29.44 "HgN/A
9:00 AM60 °FCool.2 mph64%29.41 "HgN/A
8:00 AM58 °FCool.2 mph67%29.41 "HgN/A
7:00 AM54 °FCool.1 mph77%29.38 "HgN/A
6:00 AM56 °FCool.2 mph74%29.38 "HgN/A
5:00 AM56 °FCool.2 mph74%29.38 "HgN/A
Weather by CustomWeather, © 2014

See weather overviewHow to use our weather pages